Home   Weather   Utchia   Past weeks
Flag for Angola

Past Weather in Utchia, Angola — Yesterday and Last 2 Weeks

Now
79 °F

Passing clouds.


Feels Like: 82 °F
Forecast: 78 / 60 °F
Wind: 10 mph from West

Location: Luanda Airport

Current Time: Oct 15, 2019 at 5:53:26 pm

Latest Report: Oct 15, 2019 at 5:00 pm


Visibility: N/A

Pressure: 29.80 "Hg

Humidity: 84%

Dew Point: 73 °F

Location of UtchiaLocation

Past Weather in Utchia — Graph

°F

Utchia Temperature Yesterday

Maximum temperature yesterday: 81 °F (at 11:00 am)
Minimum temperature yesterday: 72 °F (at 12:00 am)
Average temperature yesterday: 77 °F

High & Low Weather Summary for the Past Weeks

 TemperatureHumidityPressure
High84 °F (Oct 2, 11:00 am)100% (Sep 30, 8:00 pm)29.95 "Hg (Sep 30, 8:00 pm)
Low72 °F (Oct 14, 12:00 am)55% (Oct 8, 10:00 am)29.74 "Hg (Oct 6, 4:00 pm)
Average77 °F79%29.85 "Hg
* Reported Sep 30 4:00 pm — Oct 15 4:00 pm, Utchia. Weather by CustomWeather, © 2019

Note: Actual official high and low records may vary slightly from our data, if they occured in-between our weather recording intervals... More about our weather records

Advertising

Utchia Weather History for the Previous 24 Hours

Scroll right to see more
 ConditionsComfort  
Time TempWeatherWind HumidityBarometerVisibility
4:00 pm
Tue, Oct 15
79 °FPassing clouds.12 mph84%29.80 "HgN/A
3:00 pm82 °FScattered clouds.9 mph74%29.83 "HgN/A
1:00 pm82 °FPartly sunny.3 mph70%29.89 "HgN/A
12:00 pm81 °FPartly sunny.7 mph74%29.92 "HgN/A
11:00 am79 °FPartly sunny.6 mph79%29.92 "HgN/A
10:00 am81 °FPartly sunny.5 mph74%29.92 "HgN/A
9:00 am79 °FPartly sunny.5 mph79%29.92 "Hg6 mi
8:00 am79 °FPartly sunny.6 mph79%29.89 "Hg5 mi
7:00 am75 °FBroken clouds.3 mph89%29.89 "Hg4 mi
6:00 am73 °FPartly sunny.2 mph94%29.86 "Hg5 mi
5:00 am75 °FPassing clouds.6 mph89%29.86 "Hg6 mi
3:00 am73 °FPassing clouds.3 mph94%29.86 "Hg6 mi
2:00 am75 °FPassing clouds.2 mph89%29.86 "Hg6 mi
1:00 am75 °FPassing clouds.3 mph89%29.86 "Hg6 mi
12:00 am75 °FPassing clouds.7 mph89%29.89 "HgN/A
10:00 pm
Mon, Oct 14
75 °FPassing clouds.10 mph89%29.89 "HgN/A
9:00 pm77 °FPassing clouds.10 mph83%29.89 "HgN/A
8:00 pm77 °FPassing clouds.9 mph83%29.86 "HgN/A
7:00 pm77 °FPassing clouds.10 mph83%29.83 "HgN/A
6:00 pm79 °FScattered clouds.8 mph79%29.83 "HgN/A
5:00 pm81 °FPartly sunny.9 mph70%29.83 "HgN/A
Weather by CustomWeather, © 2019

See weather overview